TimeCST,TemperatureF,Dew PointF,Humidity,Sea Level PressureIn,VisibilityMPH,Wind Direction,Wind SpeedMPH,Gust SpeedMPH,PrecipitationIn,Events,Conditions,WindDirDegrees,DateUTC
12:55 AM,26.1,21.9,84,30.18,9.0,WNW,4.6,-,N/A,,Clear,300,2013-02-12 06:55:00
1:55 AM,23.0,19.9,88,30.19,8.0,WNW,3.5,-,N/A,,Clear,290,2013-02-12 07:55:00
2:55 AM,21.0,18.0,88,30.19,6.0,WSW,3.5,-,N/A,,Clear,250,2013-02-12 08:55:00
3:55 AM,21.9,19.9,92,30.17,6.0,Calm,Calm,-,N/A,,Clear,0,2013-02-12 09:55:00
4:55 AM,19.0,17.1,92,30.17,5.0,West,3.5,-,N/A,,Clear,260,2013-02-12 10:55:00
5:55 AM,19.9,18.0,92,30.18,4.0,Calm,Calm,-,N/A,,Clear,0,2013-02-12 11:55:00
6:55 AM,18.0,16.0,92,30.19,5.0,West,3.5,-,N/A,,Clear,270,2013-02-12 12:55:00
7:55 AM,21.9,21.0,96,30.19,4.0,Calm,Calm,-,N/A,,Clear,0,2013-02-12 13:55:00
8:55 AM,28.0,24.1,85,30.18,6.0,WNW,3.5,-,N/A,,Clear,300,2013-02-12 14:55:00
9:55 AM,30.9,24.1,76,30.15,10.0,Calm,Calm,-,N/A,,Clear,0,2013-02-12 15:55:00
10:55 AM,34.0,23.0,64,30.14,10.0,Calm,Calm,-,N/A,,Clear,0,2013-02-12 16:55:00
11:55 AM,37.0,23.0,57,30.13,-9999.0,Variable,4.6,-,N/A,,Clear,0,2013-02-12 17:55:00
12:55 PM,-9999,-9999,N/A,30.06,10.0,North,-9999.0,-,N/A,,Clear,0,2013-02-12 18:55:00
1:55 PM,41.0,21.9,47,30.08,10.0,Variable,5.8,-,N/A,,Clear,0,2013-02-12 19:55:00
2:55 PM,42.1,25.0,51,30.06,10.0,SSW,6.9,-,N/A,,Clear,200,2013-02-12 20:55:00
3:55 PM,42.1,24.1,49,30.03,10.0,South,5.8,-,N/A,,Clear,190,2013-02-12 21:55:00
4:55 PM,39.0,24.1,55,30.01,10.0,SSW,4.6,-,N/A,,Clear,200,2013-02-12 22:55:00
5:55 PM,35.1,26.1,70,30.01,10.0,South,4.6,-,N/A,,Clear,190,2013-02-12 23:55:00
6:55 PM,32.0,26.1,79,30.01,10.0,SSW,5.8,-,N/A,,Clear,210,2013-02-13 00:55:00
7:55 PM,30.0,25.0,82,30.01,10.0,SSW,5.8,-,N/A,,Clear,210,2013-02-13 01:55:00
8:55 PM,32.0,25.0,75,30.00,10.0,SW,5.8,-,N/A,,Clear,220,2013-02-13 02:55:00
9:55 PM,28.9,25.0,85,29.99,10.0,SW,3.5,-,N/A,,Clear,220,2013-02-13 03:55:00
10:55 PM,28.0,24.1,85,29.98,9.0,SW,4.6,-,N/A,,Clear,220,2013-02-13 04:55:00
11:55 PM,28.0,24.1,85,29.97,8.0,SW,4.6,-,N/A,,Clear,230,2013-02-13 05:55:00